Regional Weather Roundup
Issued by NWS

Home | Current Version | Previous Version | Graphics & Text | Print | Product List | Glossary On
Versions: 1 2 3 4 5 6 7 8 9 10 11 12 13 14 15 16 17 18 19 20 21 22 23 24 25 26 27 28
000
ASUS45 KTFX 081810
RWRMT
MONTANA REGIONAL WEATHER ROUNDUP
NATIONAL WEATHER SERVICE GREAT FALLS MT
1100 AM MST THU DEC 08 2016

NOTE: "FAIR" INDICATES FEW OR NO CLOUDS BELOW 12000 FEET WITH NO
SIGNIFICANT WEATHER AND/OR OBSTRUCTIONS TO VISIBILITY.

MTZ001>007-043-081900-
WEST OF THE DIVIDE

CITY           SKY/WX    TMP DP  RH WIND       PRES   REMARKS
KALISPELL      CLOUDY     6  -4  63 N12       30.40F WCI  -9
MISSOULA       SUNNY     11   0  61 E10       30.35F WCI  -3
BUTTE          CLOUDY     3  -3  76 CALM      30.19F
MULLAN PASS    CLOUDY     0  -3  87 SE9       30.04S FOG     WCI -15
ANACONDA         N/A      7  -2  66 SW6       30.22F WCI  -3
DEER LODGE       N/A      9   0  66 SE3       30.27F
EUREKA           N/A      7   1  78 CALM      30.49F
HAMILTON         N/A      9   0  66 S5        30.30F
LIBBY            N/A      9   3  78 CALM      30.42F
PLAINS           N/A     17   5  59 NE7       30.36F WCI   8
RONAN            N/A     13   6  73 N12       30.33F WCI  -1
THOMPSON FALLS   N/A     15   6  67 NE10      30.38F WCI   2
$$

MTZ008-052>055-081900-
SOUTHWEST MONTANA

CITY           SKY/WX    TMP DP  RH WIND       PRES   REMARKS
BOZEMAN        SUNNY      6  -2  69 CALM      30.33F
DILLON         CLOUDY     4  -3  73 SW7       30.23F WCI  -8
W YELLOWSTONE  CLOUDY    -2  -9  71 CALM      30.20F
ENNIS          SUNNY     10  -2  56 SE6       30.26F WCI   1
THREE FORKS      N/A      7 -46   7 CALM      30.29F
TWIN BRIDGES     N/A      4  -8  57 CALM      30.21F
$$

MTZ009-010-012-014-046-048-049-054-081900-
EAST SLOPES AND CENTRAL MONTANA

CITY           SKY/WX    TMP DP  RH WIND       PRES   REMARKS
CUT BANK       CLOUDY    -3  -9  75 N3        30.46S HAZE
GREAT FALLS    CLOUDY    -1  -8  72 CALM      30.47F
MALMSTROM AFB  FLURRIES  -1  -6  81 N3        30.51S
HELENA         CLOUDY     5  -3  69 VRB5      30.39F HAZE
AUGUSTA        CLOUDY    -4  -9  81 E1        30.37F
BOWMANS CRNR     N/A    N/A N/A N/A NE7         N/A
CHOTEAU          N/A     -2  -8  78 MISG      30.46S
CONRAD           N/A     -2  -8  75 NW5       30.45S
FAIRFIELD      FLURRIES  -3 -10  71 N2        30.44F
POWER          CLOUDY    -3  -9  77 NW3       30.45F
RAYNESFORD     PTSUNNY   -2  -6  82 NW5       30.42F
ULM            PTSUNNY   -2  -7  80 NE7       30.48F WCI -15
$$

MTZ011-013-016-021-045-047-050-051-081900-
NORTH CENTRAL MONTANA

CITY           SKY/WX    TMP DP  RH WIND       PRES   REMARKS
HAVRE          SUNNY     -2  -8  76 NW7       30.62F WCI -15
LEWISTOWN      CLOUDY     0  -6  76 VRB3      30.40F
N BAR RANCH    CLOUDY     5  -4  66 CALM      30.38F
CHINOOK          N/A     -2  -9  71 W5        30.65F
DENTON         CLOUDY    -1  -6  80 E9G17     30.44F WCI -16
GEYSER         FLURRIES  -2  -6  82 E5        30.41F
GRASS RANGE    PTSUNNY    0  -5  80 N3        30.41F
JUDITH GAP     FLURRIES  -1  -5  83 S14       30.35F WCI -20
ROY            PTSUNNY    0  -4  82 MISG      30.47F
STANFORD       FLURRIES  -4  -7  87 E2        30.37F
WINIFRED       CLOUDY     0  -4  82 MISG      30.46F
$$

MTZ017>020-022>027-061-062-081900-
NORTHEAST MONTANA

CITY           SKY/WX    TMP DP  RH WIND       PRES   REMARKS
GLASGOW        SUNNY      1  -7  68 W8        30.65S WCI -13
JORDAN           N/A      1  -5  75 W3        30.62F
SIDNEY         PTSUNNY    2  -5  72 NW10      30.68F WCI -14
WOLF POINT     SUNNY      2  -7  66 NW5       30.69F
PLENTYWOOD       N/A     -6 -11  77 NW12      30.62F WCI -24
POPLAR           N/A      0  -9  65 W5        30.68F
SCOBEY           N/A     -4 -16  56 NW8       30.55F WCI -19
$$

MTZ028>42-056>058-081900-
SOUTHCENTRAL AND SOUTHEAST MONTANA

CITY           SKY/WX    TMP DP  RH WIND       PRES   REMARKS
BAKER          CLOUDY    -3  -8  79 W8        30.59S HAZE    WCI -18
BILLINGS       MOSUNNY    4  -4  69 NE5       30.47F
LIVINGSTON     SUNNY      0  -5  79 E5        30.34F
MILES CITY     SUNNY      3  -6  66 VRB3      30.62F
BIG TIMBER     PTSUNNY    0  -4  85 E6        30.39F WCI -12
EKALAKA          N/A     -2 -10  68 W5        30.43F
FORSYTH          N/A      3  -2  78 CALM      30.60F
HARLOWTON      CLOUDY     1  -4  80 SE5       30.39F
LAUREL           N/A      6  -7  55 NE6       30.39F WCI  -4
ROUNDUP          N/A      4  -9  55 E3        30.36F
$$

REGIONAL REPORTS...DAKOTAS

CITY           SKY/WX    TMP DP  RH WIND       PRES   REMARKS
WILLISTON      MOSUNNY   -2 -10  69 NW10      30.67F WCI -19
MINOT          MOSUNNY    0  -6  76 W15       30.62S HAZE    WCI -19
DICKINSON      CLOUDY    -2  -7  79 W15       30.56F WCI -22
BEACH          CLOUDY     0  -4  85 NW14      30.61F WCI -19
CROSBY         CLOUDY     0  -6  78 W12       30.65F WCI -18
TIOGA            N/A     -2  -6  84 W17       30.61F WCI -24
WATFORD CITY     N/A     -2  -9  71 NW10      30.65F WCI -19
BISMARCK       CLOUDY     4  -3  73 NW14      30.65F WCI -14
GRAND FORKS    LGT SNOW  16  11  80 NW22      30.53S WCI  -2
FARGO          LGT SNOW  17   9  70 NW20      30.53R WCI   1
BUFFALO SD       N/A      3  -6  66 NW17      30.48F WCI -17
RAPID CITY     SUNNY      9  -3  58 CALM      30.56F
$$

REGIONAL REPORTS...WYOMING/IDAHO/WASHINGTON

CITY           SKY/WX    TMP DP  RH WIND       PRES   REMARKS
GILLETTE       SUNNY      3  -3  76 S6        30.43F WCI  -8
SHERIDAN       SUNNY      1  -8  66 CALM      30.44F
BUFFALO WY     SUNNY      7  -6  55 S10       30.35F WCI  -8
CODY           CLOUDY     4  -3  73 S5        30.31F
YELLOWSTONE LA   N/A      4  -1  80 VRB5      30.12F
IDAHO FALLS    CLOUDY    14   5  67 CALM      30.27S
SALMON         CLOUDY     1   0  92 CALM      30.32F
BOISE          CLOUDY    22  12  65 SE12      30.22F WCI  10
SPOKANE        MOSUNNY   18   5  57 NE9       30.27S WCI   7
$$

REGIONAL REPORTS...ALBERTA

CITY           SKY/WX    TMP DP  RH WIND       PRES   REMARKS
EDMONTON       CLOUDY    -8 -15  71 CALM      30.68F
CALGARY        CRYSTALS  -8 -13  77 SE2       30.49S
LETHBRIDGE     FLURRIES -11 -15  84 W6        30.58S WCI -25
MEDICINE HAT   PTSUNNY  -11 -15  84 SW5       30.66F
WATERTON GATE    N/A    -11 -17  77 CALM        N/A
CARDSTON         N/A     -6 -13  71 N2          N/A
MILK RIVER       N/A     -2  -8  78 NW3         N/A
ONEFOUR          N/A     -8 -11  84 NW9         N/A  WCI -25
$$

REGIONAL REPORTS...SASKATCHEWAN

CITY           SKY/WX    TMP DP  RH WIND       PRES   REMARKS
SWIFT CURRENT  FLURRIES  -6  -9  84 W13       30.56F WCI -25
REGINA         PTSUNNY   -2  -8  78 NW15      30.63F WCI -22
SASKATOON      CRYSTALS  -4 -11  71 NW8       30.70F WCI -19
CYPRESS HILLS    N/A     -9 -15  77 N3          N/A
VAL MARIE        N/A     -4 -11  71 SW1         N/A
ROCKGLEN         N/A     -6  -9  84 N7          N/A  WCI -20
ASSINIBOIA       N/A     -6 -11  77 NW1         N/A
$$




USA.gov is the U.S. government's official web portal to all federal, state and local government web resources and services.